| time (UTC) | temp F | wind direction | speed MPH | gust MPH | rain 1hr in | rain 24hr in | rain mn in | humidity % | barometer mb |
| 20260505164114 | 50 | 166 | 2.0 | 4.0 | 0.00 | 0.00 | 0.00 | 97 | 1019.9 |
| 20260505163116 | 50 | 164 | 4.0 | 8.0 | 0.00 | 0.00 | 0.00 | 97 | 1020.0 |
| 20260505162114 | 50 | 176 | 3.0 | 6.0 | 0.00 | 0.00 | 0.00 | 97 | 1020.0 |
| 20260505161115 | 50 | 180 | 4.0 | 8.0 | 0.00 | 0.00 | 0.00 | 97 | 1020.0 |
| 20260505160116 | 50 | 176 | 2.0 | 6.0 | 0.00 | 0.00 | 0.00 | 97 | 1020.1 |
| 20260505153115 | 50 | 180 | 2.0 | 5.0 | 0.00 | 0.00 | 0.00 | 97 | 1020.3 |
| 20260505152215 | 50 | 164 | 2.0 | 7.0 | 0.00 | 0.00 | 0.00 | 97 | 1020.3 |
| 20260505151214 | 50 | 151 | 1.0 | 3.0 | 0.00 | 0.00 | 0.00 | 97 | 1020.3 |
| 20260505140114 | 50 | 158 | 2.0 | 3.0 | 0.00 | 0.00 | 0.00 | 97 | 1020.7 |
| 20260505130215 | 49 | 180 | 4.0 | 6.0 | 0.00 | 0.00 | 0.00 | 98 | 1021.1 |
| 20260505124215 | 49 | 161 | 4.0 | 7.0 | 0.00 | 0.00 | 0.00 | 97 | 1021.2 |
| 20260505123313 | 49 | 174 | 4.0 | 7.0 | 0.00 | 0.00 | 0.00 | 97 | 1021.4 |
| 20260505122315 | 49 | 180 | 2.0 | 4.0 | 0.00 | 0.00 | 0.00 | 97 | 1021.4 |
| 20260505121314 | 49 | 180 | 2.0 | 6.0 | 0.00 | 0.00 | 0.00 | 97 | 1021.3 |
| 20260505121214 | 49 | 180 | 4.0 | 7.0 | 0.00 | 0.00 | 0.00 | 97 | 1021.4 |
| 20260505120214 | 49 | 129 | 2.0 | 5.0 | 0.00 | 0.00 | 0.00 | 97 | 1021.5 |
| 20260505115213 | 49 | 161 | 2.0 | 7.0 | 0.00 | 0.00 | 0.00 | 97 | 1021.3 |
| 20260505115113 | 49 | 172 | 4.0 | 8.0 | 0.00 | 0.00 | 0.00 | 97 | 1021.3 |
| 20260505114116 | 49 | 180 | 2.0 | 6.0 | 0.00 | 0.00 | 0.00 | 97 | 1021.5 |
| 20260505113115 | 49 | 172 | 2.0 | 4.0 | 0.00 | 0.00 | 0.00 | 97 | 1021.5 |
| 20260505111116 | 49 | 151 | 4.0 | 6.0 | 0.00 | 0.00 | 0.00 | 97 | 1021.5 |
| 20260505111015 | 49 | 151 | 4.0 | 10.0 | 0.00 | 0.00 | 0.00 | 97 | 1021.6 |
| 20260505102014 | 49 | 144 | 2.0 | 5.0 | 0.00 | 0.00 | 0.00 | 96 | 1021.7 |
| 20260505101016 | 49 | 164 | 2.0 | 4.0 | 0.00 | 0.00 | 0.00 | 96 | 1021.7 |
| 20260505100015 | 49 | 174 | 4.0 | 7.0 | 0.00 | 0.00 | 0.00 | 96 | 1021.8 |
| 20260505095014 | 49 | 161 | 2.0 | 5.0 | 0.00 | 0.00 | 0.00 | 96 | 1021.7 |
| 20260505094113 | 49 | 176 | 1.0 | 5.0 | 0.00 | 0.00 | 0.00 | 96 | 1021.8 |
| 20260505093114 | 48 | 148 | 3.0 | 6.0 | 0.00 | 0.00 | 0.00 | 97 | 1021.7 |
| 20260505093014 | 48 | 164 | 3.0 | 7.0 | 0.00 | 0.00 | 0.00 | 97 | 1021.7 |
| 20260505092014 | 48 | 172 | 3.0 | 7.0 | 0.00 | 0.00 | 0.00 | 97 | 1021.7 |
| 20260505091015 | 48 | 168 | 4.0 | 7.0 | 0.00 | 0.00 | 0.00 | 97 | 1021.8 |
| 20260505085113 | 48 | 180 | 5.0 | 8.0 | 0.00 | 0.00 | 0.00 | 97 | 1021.9 |
| 20260505084116 | 49 | 158 | 5.0 | 9.0 | 0.00 | 0.00 | 0.00 | 97 | 1021.8 |
| 20260505083116 | 49 | 174 | 2.0 | 6.0 | 0.00 | 0.00 | 0.00 | 97 | 1021.8 |
| 20260505082116 | 49 | 171 | 3.0 | 9.0 | 0.00 | 0.00 | 0.00 | 98 | 1021.9 |
| 20260505080215 | 49 | 169 | 3.0 | 7.0 | 0.00 | 0.00 | 0.00 | 98 | 1021.7 |
| 20260505075217 | 49 | 172 | 4.0 | 11.0 | 0.00 | 0.00 | 0.00 | 98 | 1021.7 |
| 20260505074216 | 49 | 178 | 3.0 | 7.0 | 0.00 | 0.00 | 0.00 | 98 | 1021.6 |
| 20260505074114 | 49 | 155 | 4.0 | 8.0 | 0.00 | 0.00 | 0.00 | 98 | 1021.7 |
| 20260505073213 | 49 | 169 | 3.0 | 7.0 | 0.00 | 0.00 | 0.00 | 98 | 1021.7 |
| 20260505072215 | 49 | 174 | 7.0 | 13.0 | 0.00 | 0.00 | 0.00 | 98 | 1021.8 |
| 20260505071216 | 49 | 178 | 3.0 | 8.0 | 0.00 | 0.00 | 0.00 | 98 | 1021.7 |
| 20260505070214 | 49 | 180 | 4.0 | 8.0 | 0.00 | 0.00 | 0.00 | 98 | 1021.8 |
| 20260505065215 | 49 | 174 | 3.0 | 8.0 | 0.00 | 0.00 | 0.00 | 98 | 1021.9 |
| 20260505064216 | 49 | 180 | 4.0 | 6.0 | 0.00 | 0.00 | 0.00 | 98 | 1021.8 |
| 20260505063313 | 49 | 176 | 3.0 | 5.0 | 0.00 | 0.00 | 0.00 | 98 | 1021.8 |
| 20260505063214 | 49 | 180 | 4.0 | 7.0 | 0.00 | 0.00 | 0.00 | 98 | 1021.9 |
| 20260505062216 | 50 | 174 | 2.0 | 6.0 | 0.00 | 0.00 | 0.00 | 98 | 1021.9 |
| 20260505061216 | 50 | 166 | 2.0 | 6.0 | 0.00 | 0.00 | 0.00 | 98 | 1021.8 |
| 20260505060216 | 50 | 178 | 2.0 | 5.0 | 0.00 | 0.00 | 0.00 | 98 | 1021.8 |
| 20260505055235 | 50 | 172 | 4.0 | 10.0 | 0.00 | 0.00 | 0.00 | 98 | 1021.9 |
| 20260505055114 | 50 | 180 | 2.0 | 3.0 | 0.00 | 0.00 | 0.00 | 98 | 1021.9 |
| 20260505054214 | 50 | 180 | 2.0 | 3.0 | 0.00 | 0.00 | 0.00 | 98 | 1021.8 |
| 20260505053215 | 50 | 151 | 2.0 | 5.0 | 0.00 | 0.00 | 0.00 | 98 | 1021.9 |
| 20260505052213 | 50 | 180 | 1.0 | 4.0 | 0.00 | 0.00 | 0.00 | 98 | 1021.8 |
| 20260505051216 | 50 | 180 | 5.0 | 7.0 | 0.00 | 0.00 | 0.00 | 97 | 1021.8 |
| 20260505050216 | 50 | 166 | 3.0 | 8.0 | 0.00 | 0.00 | 0.00 | 97 | 1021.7 |
| 20260505041417 | 51 | 180 | 5.0 | 7.0 | 0.00 | 0.00 | 0.00 | 97 | 1021.6 |
| 20260505040415 | 51 | 180 | 2.0 | 5.0 | 0.00 | 0.00 | 0.00 | 97 | 1021.8 |
| 20260505034516 | 52 | 150 | 2.0 | 5.0 | 0.00 | 0.00 | 0.00 | 97 | 1021.7 |
| 20260505033515 | 52 | 176 | 4.0 | 7.0 | 0.00 | 0.00 | 0.00 | 97 | 1021.7 |
| 20260505033415 | 52 | 174 | 5.0 | 7.0 | 0.00 | 0.00 | 0.00 | 97 | 1021.7 |
| 20260505033315 | 52 | 159 | 4.0 | 7.0 | 0.00 | 0.00 | 0.00 | 97 | 1021.8 |
| 20260505032410 | 52 | 126 | 2.0 | 5.0 | 0.00 | 0.00 | 0.00 | 97 | 1021.8 |
| 20260505031115 | 53 | 172 | 2.0 | 4.0 | 0.00 | 0.00 | 0.00 | 97 | 1021.9 |
| 20260505025114 | 53 | 176 | 2.0 | 5.0 | 0.00 | 0.00 | 0.00 | 97 | 1021.9 |
| 20260505024115 | 54 | 176 | 3.0 | 4.0 | 0.00 | 0.00 | 0.00 | 97 | 1022.0 |
| 20260505023114 | 55 | 155 | 3.0 | 7.0 | 0.00 | 0.00 | 0.00 | 97 | 1022.0 |
| 20260505022114 | 55 | 180 | 0.0 | 1.0 | 0.00 | 0.00 | 0.00 | 97 | 1022.0 |
| 20260505021138 | 55 | 180 | 1.0 | 3.0 | 0.00 | 0.00 | 0.00 | 97 | 1022.0 |
| 20260505020214 | 55 | 180 | 0.0 | 1.0 | 0.00 | 0.00 | 0.00 | 96 | 1022.1 |
| 20260505015215 | 55 | 180 | 0.0 | 2.0 | 0.00 | 0.00 | 0.00 | 96 | 1022.2 |
| 20260505014214 | 55 | 180 | 1.0 | 2.0 | 0.00 | 0.00 | 0.00 | 96 | 1022.1 |
| 20260505012315 | 55 | 180 | 1.0 | 3.0 | 0.00 | 0.00 | 0.00 | 96 | 1022.3 |
| 20260505011315 | 55 | 180 | 0.0 | 0.0 | 0.00 | 0.00 | 0.00 | 96 | 1022.3 |
| 20260505010414 | 55 | 180 | 1.0 | 2.0 | 0.00 | 0.00 | 0.00 | 96 | 1022.4 |
| 20260505005429 | 55 | 180 | 0.0 | 2.0 | 0.00 | 0.00 | 0.00 | 96 | 1022.4 |
| 20260505002515 | 56 | 180 | 0.0 | 1.0 | 0.00 | 0.00 | 0.00 | 95 | 1022.5 |
| 20260505002414 | 56 | 180 | 0.0 | 0.0 | 0.00 | 0.00 | 0.00 | 95 | 1022.6 |
| 20260505001415 | 56 | 180 | 0.0 | 0.0 | 0.00 | 0.00 | 0.00 | 95 | 1022.6 |
| 20260505000415 | 56 | 180 | 1.0 | 2.0 | 0.00 | 0.00 | 0.00 | 94 | 1022.7 |
| 20260504235513 | 56 | 180 | 0.0 | 1.0 | 0.00 | 0.00 | 0.00 | 94 | 1022.8 |
| 20260504234514 | 56 | 180 | 1.0 | 1.0 | 0.00 | 0.00 | 0.00 | 93 | 1022.8 |
| 20260504233513 | 56 | 180 | 1.0 | 2.0 | 0.00 | 0.00 | 0.00 | 93 | 1023.0 |
| 20260504231513 | 56 | 135 | 0.0 | 0.0 | 0.00 | 0.00 | 0.00 | 93 | 1023.0 |
| 20260504230612 | 56 | 135 | 0.0 | 0.0 | 0.00 | 0.00 | 0.00 | 93 | 1023.1 |
| 20260504225613 | 56 | 135 | 0.0 | 0.0 | 0.00 | 0.00 | 0.00 | 93 | 1023.1 |
| 20260504223714 | 56 | 135 | 0.0 | 0.0 | 0.00 | 0.00 | 0.00 | 93 | 1023.4 |
| 20260504222715 | 56 | 135 | 0.0 | 1.0 | 0.00 | 0.00 | 0.00 | 92 | 1023.5 |
| 20260504222614 | 56 | 135 | 0.0 | 0.0 | 0.00 | 0.00 | 0.00 | 92 | 1023.4 |
| 20260504221615 | 56 | 135 | 1.0 | 3.0 | 0.00 | 0.00 | 0.00 | 92 | 1023.6 |
| 20260504220714 | 56 | 135 | 0.0 | 0.0 | 0.00 | 0.00 | 0.00 | 92 | 1023.6 |
| 20260504215722 | 56 | 135 | 1.0 | 2.0 | 0.00 | 0.00 | 0.00 | 92 | 1023.7 |
| 20260504214723 | 56 | 135 | 0.0 | 0.0 | 0.00 | 0.00 | 0.00 | 92 | 1023.7 |
| 20260504212723 | 56 | 135 | 0.0 | 2.0 | 0.00 | 0.00 | 0.00 | 92 | 1023.7 |
| 20260504211722 | 57 | 135 | 0.0 | 1.0 | 0.00 | 0.00 | 0.00 | 91 | 1023.8 |
| 20260504210722 | 57 | 135 | 0.0 | 0.0 | 0.00 | 0.00 | 0.00 | 91 | 1023.8 |
| 20260504205722 | 57 | 135 | 1.0 | 3.0 | 0.00 | 0.00 | 0.00 | 91 | 1023.9 |
| 20260504204722 | 58 | 135 | 2.0 | 4.0 | 0.00 | 0.00 | 0.00 | 91 | 1023.9 |
| 20260504202821 | 58 | 135 | 1.0 | 5.0 | 0.00 | 0.00 | 0.00 | 90 | 1024.1 |
| 20260504202746 | 58 | 135 | 1.0 | 1.0 | 0.00 | 0.00 | 0.00 | 90 | 1024.0 |
| 20260504201823 | 58 | 135 | 3.0 | 5.0 | 0.00 | 0.00 | 0.00 | 89 | 1024.0 |
| 20260504200824 | 58 | 104 | 1.0 | 2.0 | 0.00 | 0.00 | 0.00 | 89 | 1023.8 |
| 20260504195824 | 58 | 180 | 2.0 | 4.0 | 0.00 | 0.00 | 0.00 | 88 | 1023.8 |
| 20260504194922 | 58 | 135 | 0.0 | 0.0 | 0.00 | 0.00 | 0.00 | 87 | 1023.7 |
| 20260504193923 | 58 | 135 | 0.0 | 1.0 | 0.00 | 0.00 | 0.00 | 87 | 1023.9 |
| 20260504191922 | 59 | 135 | 0.0 | 0.0 | 0.00 | 0.00 | 0.00 | 86 | 1023.6 |
| 20260504185923 | 59 | 135 | 0.0 | 1.0 | 0.00 | 0.00 | 0.00 | 84 | 1023.6 |
| 20260504184921 | 60 | 135 | 0.0 | 1.0 | 0.00 | 0.00 | 0.00 | 83 | 1023.7 |
| 20260504184822 | 60 | 135 | 0.0 | 0.0 | 0.00 | 0.00 | 0.00 | 83 | 1023.7 |
| 20260504183921 | 60 | 135 | 3.0 | 4.0 | 0.00 | 0.00 | 0.00 | 83 | 1023.7 |
| 20260504182923 | 61 | 135 | 2.0 | 4.0 | 0.00 | 0.00 | 0.00 | 82 | 1023.5 |
| 20260504181922 | 61 | 135 | 1.0 | 3.0 | 0.00 | 0.00 | 0.00 | 81 | 1023.6 |
| 20260504180922 | 62 | 135 | 3.0 | 5.0 | 0.00 | 0.00 | 0.00 | 79 | 1023.5 |
| 20260504174021 | 64 | 135 | 4.0 | 5.0 | 0.00 | 0.00 | 0.00 | 74 | 1023.4 |
| 20260504173022 | 65 | 135 | 5.0 | 7.0 | 0.00 | 0.00 | 0.00 | 74 | 1023.4 |
| 20260504172922 | 65 | 135 | 4.0 | 7.0 | 0.00 | 0.00 | 0.00 | 73 | 1023.3 |
| 20260504171922 | 65 | 135 | 2.0 | 4.0 | 0.00 | 0.00 | 0.00 | 73 | 1023.4 |
| 20260504170940 | 65 | 135 | 4.0 | 6.0 | 0.00 | 0.00 | 0.00 | 72 | 1023.3 |
| 20260504170844 | 65 | 132 | 5.0 | 7.0 | 0.00 | 0.00 | 0.00 | 72 | 1023.2 |